Location: ???? ?????????
(44.4803°N, 135.4037°E)
Time: 13:31:20
(UTC+00:00)

Daily predictions for brighter satellites

Satellite Brightness Start Highest point End
(mag) Time Altitude Azimuth Time Altitude Azimuth Time Altitude Azimuth
USA 59 Rocket 3.1 18:46:15 11° ENE 18:46:15 11° ENE 18:46:28 10° E
CZ-3 Stage 3 4.4 18:46:57 41° SSW 18:49:05 44° SSE 19:15:40 10° ESE
CZ-3 R/B 4.3 18:48:15 40° SW 18:50:44 41° SSW 19:01:01 10° SE
SL-16 R/B 4.3 19:17:29 15° N 19:20:19 21° NE 19:24:31 10° E
Cosmos 2082 Rocket 2.9 19:19:41 40° SSE 19:21:09 51° ESE 19:26:35 10° NE
COSMOS 2455 3.6 19:22:19 42° NNE 19:23:33 48° NE 19:29:20 10° SE
Cosmos 2279 Rocket 3.9 19:31:10 81° SSW 19:31:10 81° SSW 19:37:07 10° S
IRS-1D 4.4 19:37:26 10° NNE 19:42:16 48° E 19:47:09 10° S
Cosmos 967 Rocket 4.4 19:41:35 71° NW 19:42:20 82° WSW 19:48:47 10° SSE
Cosmos 1898 Rocket 4.1 19:41:17 37° NNE 19:43:01 53° ENE 19:48:08 10° SE
Cosmos 2180 Rocket 4.4 19:39:37 22° N 19:43:50 85° E 19:50:11 10° S
Cosmos 1980 Rocket 2.2 19:45:12 65° SSW 19:45:12 65° SSW 19:50:05 10° SSE
Cosmos 2369 3.8 19:46:28 46° N 19:48:11 71° ENE 19:53:49 10° SSE
Cosmos 468 Rocket 4.2 19:50:19 58° N 19:50:19 58° N 19:54:35 10° NNE
Cosmos 1933 3.8 19:56:49 53° SE 19:56:49 53° SE 19:59:57 10° SSE
USA 234 4.3 19:53:52 10° ENE 19:59:22 30° N 20:01:05 26° NNW
Aureole 1 Rocket 4.2 19:58:35 28° NNW 20:02:45 81° WSW 20:10:15 10° SSE
NOAA 12 4.3 20:00:14 10° NNE 20:05:32 71° ESE 20:10:46 10° S
Cosmos 2142 Rocket 4.4 20:02:52 27° NNW 20:06:20 62° W 20:12:24 10° S
Cosmos 1937 Rocket 3.8 20:05:21 25° N 20:08:20 63° ENE 20:13:24 10° SSE
Cosmos 2333 Rocket 3.7 20:03:46 12° N 20:08:36 34° NE 20:13:47 10° ESE
Cosmos 2098 Rocket 3.9 20:10:28 49° W 20:10:35 49° W 20:16:08 10° SSW
Cosmos 372 Rocket 3.8 20:14:09 48° NW 20:15:27 68° WSW 20:20:28 10° S
SKYMED 2 3.4 20:11:58 10° SSE 20:16:19 83° WSW 20:17:59 37° NNW
Cosmos 2360 Rocket 4.0 20:11:54 10° N 20:16:40 27° NE 20:21:23 10° ESE
COSMO-SKYMED 1 2.6 20:14:21 10° SSE 20:18:25 69° ENE 20:21:11 20° N
SWAS 4.4 20:17:33 44° N 20:18:42 71° ENE 20:22:43 10° SSE
SJ-11-01 4.3 20:14:16 10° N 20:18:52 55° WNW 20:23:25 10° SSW
Cosmos 1092 Rocket 4.4 20:20:31 10° S 20:26:43 64° E 20:32:53 10° NNE
NOSS 2-1 (D) 3.3 20:28:57 51° WNW 20:29:49 72° SW 20:34:39 10° SSE
NOSS 3-1 (C) 4.1 20:24:43 22° NW 20:29:55 90° ENE 20:38:55 10° SE
Cosmos 220 Rocket 3.7 20:27:10 10° SSW 20:31:12 70° WNW 20:35:18 10° NNE
Cosmos 489 Rocket 4.4 20:25:19 10° SSW 20:31:37 73° WNW 20:37:55 10° NNE
Nadezhda 4 Rocket 4.0 20:25:53 10° SSW 20:32:05 60° W 20:38:19 10° N
USA 59 Rocket -0.1 20:31:57 47° WNW 20:32:51 61° SW 20:37:45 10° SSE
Cosmos 1428 Rocket 4.4 20:27:21 10° SSW 20:33:31 70° W 20:39:48 10° N
Cosmos 2219 Rocket 4.1 20:31:09 10° N 20:35:42 24° NE 20:40:11 10° ESE
NOSS 2-1 (E) 3.3 20:35:45 41° NW 20:37:02 78° SW 20:41:50 10° SSE
Cosmos 2322 Rocket 3.3 20:33:11 10° NNW 20:38:36 42° ENE 20:43:58 10° SE
Meteor 2-3 Rocket 3.6 20:32:51 10° SSW 20:38:37 79° W 20:44:20 10° N
Cosmos 1484 Rocket 3.1 20:36:20 10° NNE 20:39:43 57° E 20:43:03 10° S
Cosmos 1606 Rocket 3.8 20:37:58 29° NW 20:39:47 46° W 20:43:59 10° SSW
BREEZE-M DEB (TANK) 3.1 20:39:48 46° NW 20:40:05 48° NNW 20:42:23 10° ENE
Okean 1 4.2 20:39:07 10° N 20:42:33 44° ENE 20:45:57 10° SSE
BREEZE-M DEB (TANK) 2.3 20:44:06 48° WNW 20:44:36 60° NNW 20:49:03 10° ENE
Tiangong -0.7 20:45:38 24° SW 20:46:24 27° SSW 20:49:12 10° SE
Cosmos 2195 Rocket 4.4 20:40:17 10° SSW 20:46:30 69° W 20:52:49 10° N
Cosmos 2237 4.3 20:45:29 19° NW 20:49:30 56° WSW 20:55:02 10° S
COSMOS 2406 3.2 20:47:11 10° SW 20:52:46 59° WNW 20:58:22 10° NNE
ATLAS 3B R/B 4.5 20:50:28 10° NNW 20:56:49 25° NNE 21:03:00 10° ENE
NOSS 2-1 (C) 3.9 20:55:34 27° WNW 20:57:16 42° SW 21:01:56 10° SSE
CZ-4 R/B 4.3 20:56:33 10° N 21:00:46 35° WNW 21:04:56 10° SW
IGS 5A 3.3 20:56:56 10° NNE 21:00:57 87° ESE 21:04:56 10° SSW
Cosmos 841 Rocket 4.0 20:57:48 10° SW 21:02:38 37° WNW 21:07:30 10° N
SL-16 R/B 2.2 20:59:21 10° NNW 21:05:01 75° WSW 21:10:39 10° SSE
Cosmos 2082 Rocket 3.0 21:01:40 14° WSW 21:05:29 28° NW 21:10:16 10° N
Cosmos 1726 Rocket 4.2 21:03:07 14° NNW 21:06:22 32° W 21:10:08 10° SSW
Meteor 2-20 4.5 21:00:23 10° NNW 21:06:23 59° W 21:12:18 10° S
Helios 1A Rocket 3.3 21:03:34 10° SSW 21:06:32 29° W 21:07:59 21° NW
COSMOS 2455 3.6 21:05:29 17° WNW 21:09:16 32° WSW 21:14:30 10° S
SL-4 R/B 2.7 21:14:38 16° NW 21:16:38 28° NNE 21:19:26 10° ENE
ATLAS 2AS CENTAUR R/B 4.3 21:10:12 10° S 21:16:41 40° ESE 21:23:01 10° NE
Cosmos 158 Rocket 4.5 21:13:22 10° S 21:18:39 68° ESE 21:23:53 10° NNE
Cosmos 1626 Rocket 3.6 21:16:43 10° S 21:21:09 90° WNW 21:25:35 10° N
Cosmos 1743 3.2 21:19:58 10° S 21:23:07 52° E 21:26:18 10° NNE
Cosmos 1892 Rocket 4.4 21:20:25 10° SW 21:24:09 27° WNW 21:27:56 10° NNW
Cosmos 2221 3.4 21:20:55 10° N 21:24:56 47° ENE 21:28:56 10° SSE
BREEZE M DEB (TANK) 2.2 21:23:57 10° SW 21:26:14 64° SSE 21:30:33 10° ENE
Cosmos 2151 3.9 21:23:33 10° S 21:27:30 50° E 21:31:28 10° NNE
Cosmos 2278 3.8 21:22:23 10° NNW 21:27:55 56° WSW 21:33:23 10° S
SJ-12 4.4 21:24:45 10° NNE 21:28:32 61° ESE 21:32:17 10° S
Meteor 2-20 Rocket 4.4 21:23:00 10° NNW 21:28:37 54° W 21:34:08 10° SSW
Cosmos 2285 Rocket 4.1 21:24:26 10° NNW 21:30:51 87° ENE 21:37:17 10° SSE
NOSS 3-1 (A) 4.2 21:28:54 10° NW 21:36:14 77° SW 21:45:16 10° SSE
SL-08 ROCKET BODY 4.3 21:31:07 10° SSW 21:36:58 76° W 21:42:50 10° N
USA 234 4.1 21:35:20 10° E 21:41:21 40° NNE 21:47:22 10° NW
CORIOLIS 4.1 21:40:06 10° N 21:45:27 70° WNW 21:50:49 10° SSW
KORONAS-FOTON 4.4 21:45:27 10° N 21:48:46 51° E 21:52:02 10° SSE
